Tracking 30995 objects as of 7-Jul-2025
HD Live streaming from Space Station
objects crossing your sky now

STARLINK-4017

Track STARLINK-4017 now!
10-day predictions
STARLINK-4017 is classified as:


NORAD ID: 52682
Int'l Code: 2022-053AC
Perigee: 546.0 km
Apogee: 547.7 km
Inclination: 53.2 °
Period: 95.4 minutes
Semi major axis: 6917 km
RCS: Unknown
Launch date: May 18, 2022
Source: United States (US)
Launch site: AIR FORCE EASTERN TEST RANGE (AFETR)
Your satellite tracking list
Your tracking list is empty




NASA's NSSDC Master Catalog

Two Line Element Set (TLE):
1 52682U 22053AC  25187.34164016  .00000335  00000-0  39154-4 0  9990
2 52682  53.2160 170.0217 0001231  81.6212 278.4920 15.08838688173960
Source of the keplerian elements: AFSPC